Location: Prague
(50.0830°N, 14.4670°E)
Time: 03:00:33
(UTC+01:00)

AO-7 - Pass Details

Date: 09 December 2021
Orbit: 1440 x 1459 km, 101.9° (Epoch: 28 January)

Event Time Altitude Azimuth Distance (km) Brightness Sun altitude
Rises 16:26:24 0° 197° (SSW) 4,521 ? -4.4°
Reaches altitude 10° 16:29:38 10° 207° (SSW) 3,546 ? -4.8°
Maximum altitude 16:36:40 30° 266° (W) 2,337 ? -5.8°
Drops below altitude 10° 16:43:46 10° 326° (NW) 3,564 ? -6.8°
Sets 16:47:04 0° 337° (NNW) 4,548 ? -7.3°
